Location: Biharia
(46.4333°N, 22.8000°E)
Time: 00:29:52
(UTC+00:00)

USA 215 - Pass Details

Date: 16 October 2021
Orbit: 1099 x 1109 km, 123.0° (Epoch: 20 November)

Event Time Altitude Azimuth Distance (km) Brightness Sun altitude
Exits shadow 16:07:34 - 55° (NE) 3,710 5.5 -5.5°
Reaches altitude 10° 16:09:34 10° 51° (NE) 2,965 5.0 -5.8°
Maximum altitude 16:15:44 46° 341° (NNW) 1,449 4.1 -6.9°
Drops below altitude 10° 16:21:54 10° 270° (W) 2,965 7.3 -7.9°
Sets 16:24:28 0° 265° (W) 3,923 8.7 -8.4°
